Hourly Weather Roundup
Issued by NWS Central Illinois

Home | Current Version | Previous Version | Text Only | Print | Product List | Glossary On
Versions: 1 2 3 4 5 6 7 8 9 10 11 12 13 14 15 16 17 18 19 20 21 22 23 24 25 26 27 28 29 30 31 32 33 34 35 36 37 38 39 40 41 42 43 44 45 46 47 48 49 50
000
NZUS43 KILX 161910
HWRILX

AREA WEATHER ROUNDUP
NATIONAL WEATHER SERVICE, LINCOLN IL
200 PM CDT WED APR 16 2014


CITY           SKY/WX    TMP DP  RH WIND       PRES   REMARKS
BLOOMINGTON    SUNNY     53  27  37 S25G37    30.19F
CHAMPAIGN      SUNNY     52  27  38 SE22G32   30.24F
DANVILLE       SUNNY     50  26  40 S14G21    30.23F
DECATUR        SUNNY     52  29  41 SE22G28   30.22F
FLORA          NOT AVBL
GALESBURG      SUNNY     54  31  40 S21G35    30.08F
JACKSONVILLE   SUNNY     55  29  37 S18G29    30.15F
LACON          MOSUNNY   53  30  41 S18G32    30.14F
LAWRENCEVILLE  MOSUNNY   51  27  39 SE15      30.29F
LITCHFIELD     SUNNY     50  32  49 S18G25    30.19F
$$


CITY           SKY/WX    TMP DP  RH WIND       PRES   REMARKS
LINCOLN        SUNNY     53  30  40 SE23G30   30.18F
MACOMB         SUNNY     55  28  35 S31G38    30.10F
MATTOON        SUNNY     49  26  41 SE13      30.23F
MT CARMEL AP   SUNNY     52  25  35 SE13G20   30.28F
OLNEY-NOBLE AP MOSUNNY   48  28  46 SE14G23   30.27F
PARIS          SUNNY     50  29  44 SE12G24   30.27F
PEORIA         MOSUNNY   54  28  36 S29G38    30.15F
PONTIAC        MOSUNNY   52  30  43 SE24G32   30.20F
RANTOUL        SUNNY     51  27  38 SE18G25   30.24F
ROBINSON       MOSUNNY   52  30  43 SE13G21   30.29F
SPRINGFIELD    SUNNY     55  28  35 S26G32    30.18F
TAYLORVILLE    SUNNY     50  32  50 SE20G25   30.20F
$$

...REGIONAL REPORTS...


CITY           SKY/WX    TMP DP  RH WIND       PRES   REMARKS
CHICAGO O`HARE PTSUNNY   49  25  39 S23G30    30.21F
KANKAKEE       SUNNY     50  27  40 SE21G28   30.25F
MOLINE         SUNNY     56  26  31 S20G35    30.04F
MOUNT VERNON   SUNNY     54  25  32 SE12G22   30.25F
PITTSFIELD     SUNNY     57  27  31 SE22      30.11F
QUINCY         SUNNY     56  26  31 S23G36    30.05F
ROCKFORD       CLOUDY    51  29  42 S28G38    30.16F
$$


CITY           SKY/WX    TMP DP  RH WIND       PRES   REMARKS
BURLINGTON     SUNNY     57  29  34 S20G36    30.03F
CEDAR RAPIDS   MOSUNNY   58  30  34 S28G39    29.93F
DES MOINES     CLOUDY    62  28  27 S32G43    29.81F
KIRKSVILLE     SUNNY     62  31  31 S26G36    29.97F
OTTUMWA        MOSUNNY   60  31  33 S32G44    29.92F
ST LOUIS       PTSUNNY   56  24  29 S18G26    30.17F
$$


CITY           SKY/WX    TMP DP  RH WIND       PRES   REMARKS
TERRE HAUTE    MOSUNNY   50  26  39 S13       30.28F
EVANSVILLE     SUNNY     51  28  41 S9        30.29F
INDIANAPOLIS   MOSUNNY   46  22  38 SE15G22   30.32F
LAFAYETTE      SUNNY     48  21  34 SE16G26   30.29F
MADISON        PTSUNNY   49  29  46 SE30G37   30.10F
MILWAUKEE      PTSUNNY   44  27  51 SE25G35   30.22F WCI  35
$$




USA.gov is the U.S. government's official web portal to all federal, state and local government web resources and services.